EW1922 Weather Reports


time (UTC)temp
C
wind
direction
speed
KPH
gust
KPH
rain 1hr
cm
rain 24hr
cm
rain mn
cm
humidity
%
barometer
mb
20260503050056 17 359 8.0 17.7 0.00 0.00 0.00 42 1008.5
20260503044608 17 359 6.4 9.7 0.00 0.00 0.00 40 1008.8
20260503043057 18 359 4.8 19.3 0.00 0.00 0.00 37 1008.9
20260503041553 18 359 4.8 14.5 0.00 0.00 0.00 34 1008.8
20260503040100 18 359 3.2 17.7 0.00 0.00 0.00 35 1008.5
20260503034559 19 359 1.6 12.9 0.00 0.00 0.00 33 1008.2
20260503033053 19 359 8.0 16.1 0.00 0.00 0.00 31 1008.0
20260503031551 19 359 8.0 14.5 0.00 0.00 0.00 32 1007.9
20260503030118 20 359 6.4 14.5 0.00 0.00 0.00 30 1008.0
20260503024549 20 359 4.8 8.0 0.00 0.00 0.00 30 1007.6
20260503023048 20 359 1.6 9.7 0.00 0.00 0.00 29 1007.2
20260503021552 20 359 1.6 12.9 0.00 0.00 0.00 27 1006.9
20260503020048 21 359 3.2 9.7 0.00 0.00 0.00 25 1006.8
20260503014601 21 359 3.2 6.4 0.00 0.00 0.00 26 1006.9
20260503013051 21 359 3.2 8.0 0.00 0.00 0.00 26 1006.9
20260503011553 20 359 1.6 6.4 0.00 0.00 0.00 28 1007.2
20260503010053 20 359 4.8 16.1 0.00 0.00 0.00 29 1007.6
20260503004545 20 359 3.2 19.3 0.00 0.00 0.00 31 1007.8
20260503003054 20 359 16.1 25.7 0.00 0.00 0.00 30 1007.6
20260503001543 21 359 4.8 14.5 0.00 0.00 0.00 26 1007.3
20260503000047 20 359 8.0 20.9 0.00 0.00 0.00 29 1007.1
20260502234542 21 359 12.9 22.5 0.00 0.00 0.00 31 1007.2
20260502233042 20 359 8.0 29.0 0.00 0.00 0.00 26 1008.1
20260502231541 21 359 12.9 25.7 0.00 0.00 0.00 24 1007.7
20260502230041 21 359 8.0 16.1 0.00 0.00 0.00 24 1007.3
20260502224540 21 359 8.0 17.7 0.00 0.00 0.00 29 1007.3
20260502223039 20 359 19.3 59.5 0.00 0.00 0.00 29 1008.2
20260502221537 24 232 9.7 20.9 0.00 0.00 0.00 16 1007.3
20260502220040 25 278 4.8 14.5 0.00 0.00 0.00 15 1007.3
20260502214536 24 148 8.0 20.9 0.00 0.00 0.00 15 1007.5
20260502213041 25 143 11.3 22.5 0.00 0.00 0.00 15 1007.7
20260502211532 25 227 4.8 9.7 0.00 0.00 0.00 15 1007.8
20260502210026 25 273 1.6 9.7 0.00 0.00 0.00 15 1008.0
20260502204523 24 125 4.8 20.9 0.00 0.00 0.00 15 1008.3
20260502203020 24 52 6.4 16.1 0.00 0.00 0.00 15 1008.3
20260502201524 23 95 11.3 22.5 0.00 0.00 0.00 15 1008.7
20260502200014 24 66 9.7 19.3 0.00 0.00 0.00 13 1008.8
20260502194512 23 83 11.3 20.9 0.00 0.00 0.00 14 1009.0
20260502193008 23 170 4.8 19.3 0.00 0.00 0.00 14 1009.2
20260502191508 22 20 12.9 24.1 0.00 0.00 0.00 14 1009.4
20260502190008 23 53 11.3 17.7 0.00 0.00 0.00 13 1009.5
20260502184504 22 330 9.7 19.3 0.00 0.00 0.00 14 1009.7
20260502183002 22 158 1.6 12.9 0.00 0.00 0.00 14 1009.9
20260502181501 22 93 4.8 14.5 0.00 0.00 0.00 14 1010.1
20260502163039 17 359 0.0 3.2 0.00 0.00 0.00 20 1010.9
20260502161540 16 147 1.6 3.2 0.00 0.00 0.00 20 1010.9
20260502151526 13 359 0.0 4.8 0.00 0.00 0.00 25 1010.9
20260502123015 10 59 0.0 3.2 0.00 0.00 0.00 21 1010.0
20260502121515 9 59 1.6 3.2 0.00 0.00 0.00 22 1010.1
20260502114513 9 59 0.0 0.0 0.00 0.00 0.00 21 1010.1
20260502113011 9 59 0.0 0.0 0.00 0.00 0.00 22 1010.1
20260502111510 10 59 0.0 1.6 0.00 0.00 0.00 22 1010.2
20260502110010 10 59 0.0 3.2 0.00 0.00 0.00 21 1010.0
20260502104509 10 60 1.6 4.8 0.00 0.00 0.00 20 1010.0
20260502103016 10 12 0.0 0.0 0.00 0.00 0.00 20 1010.0
20260502101506 10 14 0.0 4.8 0.00 0.00 0.00 19 1009.9
20260502070038 14 359 1.6 4.8 0.00 0.00 0.00 15 1010.7
20260502064552 14 359 0.0 0.0 0.00 0.00 0.00 15 1010.8
20260502063038 14 359 0.0 3.2 0.00 0.00 0.00 14 1010.7
20260502061535 15 359 1.6 3.2 0.00 0.00 0.00 14 1010.7
20260502060038 16 359 0.0 3.2 0.00 0.00 0.00 13 1010.7
20260502054538 17 359 1.6 3.2 0.00 0.00 0.00 12 1010.7
20260502053037 17 359 1.6 6.4 0.00 0.00 0.00 13 1010.7
20260502051539 17 359 0.0 4.8 0.00 0.00 0.00 12 1010.7